Location: Willingham
(52.3167°N, 0.0667°E)
Time: 12:54:05
(UTC+00:00)

BlueWalker 3 - Pass Details

Date: 19 May 2025
Orbit: 460 x 473 km, 53.2° (Epoch: 11 June)

Event Time Altitude Azimuth Distance (km) Brightness Sun altitude
Rises 21:02:01 0° 287° (WNW) 2,493 6.6 -8.4°
Reaches altitude 10° 21:04:11 10° 282° (WNW) 1,618 5.4 -8.6°
Maximum altitude 21:07:44 50° 206° (SSW) 598 2.1 -9.0°
Enters shadow 21:10:49 13° 132° (SE) 1,445 3.6 -9.3°
